Temperature
24 25 24 24 24 24 24 24 24 24 24 23 23 22 21 20 20 20 20 20 19 19 19 19 19 19 20 20 21 21 21 20 20 20 19 19 19 19 18 18 18 17 17 17
25 24 23 23 23 23 24 23 24 24 23 23 23 22 21 20 19 19 19 19 19 18 18 18 19 19 19 20 21 21 21 20 20 20 20 20 20 19 19 18 18 18 17 17
24 23 23 23 23 23 23 23 23 23 23 22 23 22 21 20 20 19 18 18 18 17 17 16 17 17 18 19 20 21 21 20 19 20 20 20 20 19 19 18 18 17 17 17
23 22 23 23 22 22 23 21 21 22 22 23 22 22 22 20 20 20 19 18 17 17 16 16 15 16 17 18 19 20 20 19 19 19 20 20 19 19 18 18 18 17 17 17
21 21 21 20 20 20 20 20 21 21 21 22 22 21 22 20 19 19 19 18 17 16 16 15 15 15 16 17 18 19 19 18 18 18 18 19 18 18 18 18 18 17 17 17
21 20 19 19 20 20 20 20 21 21 21 20 22 22 21 18 18 18 18 17 17 16 16 15 15 15 15 16 17 17 17 17 17 17 17 17 17 16 17 17 17 17 17 17
21 19 19 18 19 19 19 19 19 19 19 20 21 20 17 16 17 17 17 17 16 16 15 15 15 14 15 15 16 16 16 16 16 16 16 16 16 16 16 16 16 16 16 17
19 19 17 18 17 17 18 17 16 16 18 18 19 18 15 16 16 16 16 16 16 15 15 15 14 14 14 14 15 15 15 15 15 15 14 15 15 15 15 15 15 15 15 16
18 18 17 17 17 17 16 16 16 16 17 17 18 17 15 17 17 16 16 15 15 15 15 14 14 13 13 13 14 14 14 14 14 14 14 14 14 14 14 14 14 15 15 16
18 18 17 17 17 16 15 14 15 15 15 16 17 16 14 14 15 15 15 14 14 14 14 14 13 13 12 13 13 13 13 13 13 13 13 13 13 13 14 14 14 15 15 15
18 18 17 16 15 13 13 13 13 14 15 14 15 13 13 12 12 13 13 13 13 13 13 13 13 13 12 12 12 13 13 13 13 13 13 13 13 14 14 14 14 15 15 16
17 18 17 16 15 14 13 12 12 12 13 13 13 12 12 11 11 11 11 11 11 12 12 13 13 13 13 12 12 12 13 13 13 13 13 13 14 14 14 14 15 15 15 15
17 17 17 17 16 14 13 13 13 13 12 11 11 11 11 10 10 10 10 10 10 11 11 12 12 12 13 13 13 13 13 13 13 13 13 14 14 14 14 14 15 15 15 15
16 17 17 15 13 13 12 13 13 13 11 11 10 10 10 10 10 10 10 10 10 11 11 11 12 12 12 13 13 13 13 13 13 13 13 14 14 14 14 14 15 15 15 15
17 17 16 15 14 14 13 13 12 12 11 10 10 10 9 9 9 9 10 10 11 11 11 11 11 12 12 12 12 13 13 13 13 14 14 14 14 14 14 14 15 15 15 14
17 16 16 15 15 15 14 13 13 12 11 11 11 11 10 10 10 10 10 11 12 12 12 12 12 12 12 12 12 12 13 13 13 13 13 13 13 13 14 14 14 14 14 14
16 17 16 16 15 15 15 14 12 12 11 10 10 11 11 12 12 12 11 12 12 12 12 12 12 12 12 12 12 12 12 12 12 12 12 12 12 13 13 13 13 13 13 13
16 16 16 16 16 16 15 14 13 12 12 11 11 12 13 13 13 13 12 12 13 13 13 12 12 12 12 12 12 12 12 12 12 12 12 12 12 12 12 12 12 12 12 12
15 16 16 16 15 16 15 14 14 14 14 13 13 13 13 14 16 15 13 12 13 13 13 13 13 13 13 12 13 13 12 12 12 12 11 11 11 11 11 11 11 12 11 11
15 15 16 16 17 16 16 15 13 14 15 14 14 14 14 15 17 15 13 13 13 13 13 13 13 13 13 12 13 13 13 12 11 11 11 11 11 11 11 11 11 11 11 11
16 16 16 17 17 17 15 13 13 15 15 14 14 14 14 14 14 13 12 13 13 13 14 14 14 14 13 13 13 14 13 12 11 11 11 11 11 11 11 11 11 10 10 10
17 17 16 16 17 16 14 13 15 15 14 13 13 13 13 13 13 13 13 13 13 14 14 14 14 14 14 14 14 14 13 12 12 11 11 11 11 10 10 11 11 11 11 10
16 16 17 17 17 14 13 14 13 12 13 13 13 12 12 12 13 13 13 13 13 14 14 15 15 15 14 14 14 14 13 13 12 12 11 11 11 10 11 11 10 10 10 10
16 14 15 15 16 14 13 13 12 12 13 12 12 12 12 12 12 13 13 13 13 14 14 15 15 15 15 15 15 14 14 14 13 12 12 11 11 11 11 11 10 10 10 10
17 15 15 16 16 14 14 13 13 12 12 12 12 12 12 12 12 12 12 13 13 13 14 14 15 15 15 15 15 15 15 14 13 12 12 11 11 11 11 10 10 10 10 10
16 15 16 17 16 16 16 14 13 13 13 12 12 12 12 12 12 12 12 12 13 13 14 14 15 15 15 15 15 15 15 15 14 13 12 12 11 11 11 10 10 10 10 9
Wind_Speed
1 1 4 6 5 5 5 6 7 3 1 3 2 1 4 7 10 11 11 12 12 13 12 11 9 8 9 12 15 18 18 17 15 13 12 10 9 8 7 8 10 11 12 12
3 6 7 4 3 3 6 8 8 4 1 5 5 3 3 5 9 10 11 12 13 15 15 14 12 9 9 9 13 17 20 18 18 14 13 10 9 7 7 7 9 11 12 12
6 7 5 4 6 6 6 7 8 8 5 6 8 8 6 2 5 8 10 12 13 14 16 16 15 13 12 10 11 12 16 16 16 14 11 10 8 6 6 6 7 9 11 11
6 7 6 6 9 10 8 6 8 9 10 9 7 10 7 1 2 9 12 13 14 15 15 15 16 16 14 13 12 10 11 13 13 11 11 12 8 6 5 5 5 6 9 9
6 10 11 11 11 11 9 11 11 12 14 14 12 10 6 2 3 9 12 14 14 15 15 15 16 16 15 13 10 5 4 9 10 10 9 9 6 4 4 2 2 2 4 6
9 9 11 12 10 8 12 13 14 12 12 17 17 13 5 3 7 11 13 15 15 15 15 15 15 15 13 12 8 2 6 9 10 10 10 11 11 7 6 4 3 1 2 4
5 10 10 12 13 10 13 12 7 9 10 11 6 7 4 6 8 11 14 15 15 14 14 14 14 14 13 12 9 3 7 9 10 11 11 12 12 10 8 5 4 4 3 5
6 6 11 12 11 10 10 9 6 7 8 6 4 2 6 6 8 11 12 14 14 14 13 12 12 12 11 10 8 8 9 10 10 10 11 11 11 8 6 5 2 5 6 6
7 5 7 9 10 10 10 8 6 7 10 10 5 3 4 8 12 15 15 16 16 14 12 11 11 11 10 9 8 9 11 12 11 10 10 11 10 8 5 3 3 6 6 4
5 3 7 8 8 11 8 7 6 4 5 5 3 1 6 16 19 18 18 17 17 14 11 10 9 10 9 9 9 9 10 11 10 10 9 8 8 5 2 3 7 9 7 6
5 4 5 7 11 13 9 6 5 5 4 4 4 3 8 14 15 16 15 15 15 13 10 8 7 7 7 8 8 9 8 8 8 8 7 6 3 1 4 7 8 7 6 6
4 2 4 6 6 8 7 7 5 4 5 4 4 2 9 13 14 13 13 13 13 12 10 9 7 6 6 6 6 6 6 6 5 4 3 1 3 5 7 7 5 4 3 4
2 2 1 3 3 9 8 13 10 3 3 4 4 5 10 14 15 14 14 13 12 13 13 12 11 8 7 5 3 3 3 3 3 2 1 2 3 3 3 2 1 1 2 2
1 5 6 5 4 5 7 13 14 9 5 5 7 9 14 18 18 17 16 14 14 14 14 13 12 12 10 9 6 4 3 2 2 3 2 2 1 1 1 2 1 1 1 1
1 4 7 7 4 6 10 11 12 11 8 6 9 11 13 16 15 14 14 14 15 15 15 14 13 13 13 12 11 9 8 6 4 4 3 3 2 2 2 3 3 2 1 1
0 3 5 4 1 2 7 10 10 9 8 7 8 8 10 11 9 11 12 12 13 14 14 14 14 14 14 14 12 12 11 10 9 8 7 5 5 5 4 4 4 4 3 3
1 3 2 2 2 4 3 6 6 5 6 5 5 6 11 10 10 11 12 12 12 13 13 13 14 14 13 12 12 12 12 11 11 11 10 9 8 8 7 7 7 6 6 6
1 2 1 1 3 1 4 2 1 1 1 3 5 8 10 9 5 7 10 11 11 11 12 12 12 12 12 11 11 11 11 11 12 12 12 11 10 9 9 9 9 9 8 8
1 2 2 1 0 3 3 3 2 1 2 2 4 7 10 9 5 10 13 12 10 10 10 9 9 10 10 11 11 11 12 12 12 12 11 10 10 9 9 9 9 8 7 7
2 2 3 2 3 1 4 5 2 3 2 1 3 7 9 9 7 9 13 12 10 9 8 8 8 8 8 8 8 10 10 10 10 9 9 8 9 8 8 8 8 7 6 6
3 3 4 4 3 2 5 6 4 3 3 2 3 5 7 7 7 9 11 10 9 8 8 8 7 7 7 6 7 9 9 8 7 6 6 7 7 7 6 6 6 7 7 6
3 3 3 3 3 2 8 6 4 2 3 1 3 5 6 7 8 9 10 10 10 10 9 9 8 8 7 6 7 8 8 5 4 4 5 5 6 6 6 6 7 7 7 7
5 4 3 4 1 4 7 5 2 1 1 1 3 5 6 7 8 10 10 10 10 10 10 9 9 8 7 6 6 7 5 3 3 3 4 4 4 5 6 6 7 6 7 6
4 4 4 5 6 7 7 7 6 4 2 2 3 4 4 6 8 9 9 9 9 10 9 9 9 9 8 7 6 5 4 3 3 3 4 4 5 5 5 5 5 6 6 6
5 7 5 6 5 7 10 10 8 6 4 2 1 2 4 6 7 8 8 8 8 8 8 8 8 9 9 8 6 4 4 3 3 3 3 3 4 5 5 5 5 5 6 6
8 9 7 5 8 7 9 12 11 9 6 3 1 1 2 4 6 7 7 7 7 8 8 8 8 9 9 8 6 5 3 3 3 2 2 3 3 4 5 4 5 5 4 4
Wind_Direction
74 22 7 349 328 304 293 271 267 282 346 286 277 89 65 39 31 22 13 6 356 346 339 334 320 300 267 251 247 241 227 212 204 194 195 189 192 194 203 210 212 209 211 214
180 44 19 21 13 306 284 277 277 269 228 271 264 226 117 53 36 23 10 5 360 352 348 346 339 328 310 277 255 242 229 213 204 198 191 187 180 187 194 206 210 212 215 219
67 32 18 22 13 322 290 295 294 286 265 237 262 233 190 110 40 28 17 7 3 358 350 347 346 341 331 315 287 253 232 208 198 192 180 169 159 154 169 195 206 213 216 218
70 34 19 17 20 344 301 343 305 280 263 255 239 270 201 194 19 19 11 5 0 356 350 348 346 342 338 332 318 278 230 198 181 177 178 167 167 163 166 177 196 212 216 216
70 35 27 21 8 352 334 322 299 282 268 265 241 255 225 142 355 2 360 356 353 350 346 344 343 339 338 337 332 311 192 161 158 163 166 144 119 110 99 110 162 206 221 217
78 51 33 8 351 355 332 306 281 260 260 255 251 244 221 58 358 347 347 347 346 345 343 342 342 340 341 345 346 12 135 134 138 140 134 122 109 96 80 51 10 333 244 224
71 57 31 8 354 350 350 333 290 257 238 252 253 238 99 43 5 347 339 339 341 342 342 342 343 343 343 350 0 41 114 116 121 122 117 112 107 101 85 63 1 317 264 233
8 39 25 15 8 343 350 348 327 294 289 303 287 227 99 28 3 350 344 341 343 344 344 345 347 349 350 357 21 48 84 94 97 102 103 100 99 95 84 65 3 289 265 244
16 45 37 26 21 11 348 349 329 291 285 278 261 138 138 358 359 356 352 349 349 347 348 354 358 2 7 16 37 57 74 78 77 82 87 86 86 83 75 42 295 266 254 227
5 43 36 23 17 29 9 333 315 299 304 292 273 53 5 352 348 347 347 345 345 347 355 5 12 15 20 26 41 54 61 70 73 74 72 77 75 69 30 285 261 251 230 208
6 45 63 47 27 8 2 355 331 300 290 299 309 56 13 346 338 334 336 341 344 349 358 10 19 19 17 26 32 35 42 56 68 76 80 85 105 187 248 252 249 241 218 204
12 355 83 74 57 26 15 360 334 324 332 322 311 14 4 344 339 342 344 348 356 6 13 15 13 13 3 4 10 19 23 35 55 77 96 171 226 243 244 239 235 221 208 211
26 346 199 148 62 21 14 12 4 334 330 349 340 345 353 353 357 1 1 6 13 21 25 23 20 16 4 348 332 336 348 355 358 8 328 263 248 245 239 199 175 166 159 191
327 54 60 75 49 8 11 17 21 24 13 359 6 354 359 359 3 7 11 16 25 28 29 29 26 24 21 21 22 22 15 16 0 3 17 5 24 52 56 63 67 74 104 175
263 98 101 106 92 47 43 28 29 34 23 19 13 17 2 354 359 5 9 21 29 30 30 31 32 33 33 36 41 44 42 42 41 44 44 37 44 63 75 77 67 60 48 294
339 139 142 143 172 44 50 34 25 25 16 18 30 31 346 340 353 10 14 22 34 36 34 33 35 36 37 40 45 49 49 46 49 52 49 52 65 76 75 67 62 53 38 16
214 187 204 125 157 202 63 31 19 22 17 1 5 332 322 343 3 14 17 24 36 40 40 39 37 37 38 40 43 48 51 55 58 58 57 59 64 64 62 62 59 50 41 36
267 211 244 222 208 101 91 100 337 317 6 349 328 328 336 347 7 39 30 22 28 31 36 38 38 41 42 44 47 50 52 56 57 57 55 54 58 60 60 56 52 47 45 46
297 234 249 259 166 127 163 192 227 255 78 13 343 349 355 344 86 56 25 11 11 13 19 26 28 36 42 41 42 50 54 54 53 51 50 50 54 56 54 50 45 39 38 42
127 209 247 243 251 190 139 141 180 248 144 64 353 3 7 9 46 28 360 354 358 360 5 7 18 34 39 38 40 51 55 55 52 50 50 50 51 54 52 48 42 40 39 39
215 213 232 241 254 135 137 146 186 225 98 74 358 356 359 10 1 341 344 356 359 358 355 355 8 27 28 26 32 46 51 54 52 50 51 51 50 49 41 35 33 30 34 36
247 229 216 219 231 169 151 167 202 56 81 28 348 349 345 345 344 349 355 0 3 3 1 356 355 4 10 12 14 35 42 45 46 45 44 43 38 29 23 23 27 32 32 41
229 241 262 236 4 106 177 197 182 182 231 351 341 340 336 339 348 351 353 357 359 0 359 354 345 338 345 360 358 4 19 14 13 21 32 24 21 21 15 16 25 37 44 46
210 206 235 245 228 202 195 204 203 206 234 308 323 329 333 340 345 348 352 354 355 356 354 347 339 334 339 344 339 336 341 337 338 357 6 10 9 18 32 35 34 43 46 46
219 191 219 234 204 192 207 206 198 192 203 221 309 343 346 345 348 348 348 353 351 349 347 342 337 331 328 330 331 334 329 312 317 332 347 2 15 16 30 55 51 55 62 40
203 198 200 214 193 190 190 190 187 188 192 188 183 28 13 354 349 348 350 350 347 346 346 347 347 342 339 339 340 346 328 290 288 310 347 3 16 25 29 49 98 94 73 49
Height
1522 1521 1523 1523 1521 1521 1520 1520 1520 1519 1520 1521 1520 1524 1527 1529 1527 1525 1523 1521 1519 1517 1515 1513 1512 1511 1511 1511 1512 1515 1517 1519 1521 1522 1525 1526 1528 1530 1532 1533 1535 1537 1539 1541
1521 1526 1527 1525 1524 1523 1521 1522 1520 1518 1521 1519 1519 1522 1525 1528 1527 1526 1524 1521 1519 1516 1513 1510 1509 1508 1507 1507 1506 1507 1510 1512 1513 1516 1519 1521 1524 1526 1529 1531 1532 1534 1536 1538
1526 1532 1529 1527 1525 1523 1522 1524 1522 1522 1519 1519 1519 1519 1523 1525 1525 1525 1524 1522 1519 1516 1512 1509 1506 1504 1502 1502 1501 1500 1502 1504 1505 1509 1512 1516 1520 1522 1525 1527 1529 1531 1533 1535
1531 1533 1531 1529 1531 1529 1523 1527 1526 1523 1522 1517 1519 1520 1515 1521 1522 1523 1522 1521 1519 1516 1512 1508 1504 1500 1498 1496 1494 1494 1495 1497 1499 1502 1505 1509 1514 1518 1521 1524 1526 1528 1530 1531
1537 1538 1537 1538 1539 1536 1533 1530 1527 1523 1519 1517 1514 1520 1510 1520 1522 1522 1522 1521 1519 1516 1512 1508 1504 1499 1496 1492 1490 1489 1490 1492 1494 1497 1500 1504 1508 1512 1516 1520 1522 1524 1526 1528
1540 1543 1545 1545 1541 1540 1536 1530 1523 1521 1519 1522 1508 1511 1514 1523 1526 1525 1523 1521 1519 1516 1512 1508 1503 1499 1495 1491 1488 1487 1487 1489 1491 1493 1496 1499 1503 1507 1511 1515 1518 1521 1523 1525
1541 1546 1549 1549 1543 1539 1537 1535 1530 1525 1521 1515 1505 1511 1527 1530 1530 1529 1526 1522 1519 1516 1512 1507 1503 1499 1495 1491 1488 1487 1486 1487 1489 1491 1492 1495 1499 1504 1507 1512 1517 1520 1522 1523
1547 1550 1554 1552 1552 1549 1543 1542 1547 1544 1531 1524 1517 1523 1536 1533 1531 1530 1526 1523 1519 1516 1512 1508 1503 1499 1495 1492 1489 1487 1486 1487 1488 1490 1491 1494 1497 1502 1506 1511 1516 1519 1522 1523
1551 1554 1556 1557 1555 1553 1549 1547 1547 1547 1536 1533 1521 1527 1533 1530 1530 1529 1526 1523 1519 1516 1512 1508 1504 1500 1496 1493 1491 1489 1488 1488 1489 1491 1492 1494 1497 1501 1506 1511 1515 1519 1522 1522
1553 1554 1557 1558 1556 1557 1559 1557 1552 1549 1545 1538 1528 1532 1541 1536 1533 1530 1527 1524 1521 1517 1513 1509 1506 1502 1498 1495 1493 1492 1491 1491 1491 1493 1494 1496 1499 1504 1508 1511 1515 1518 1520 1520
1555 1553 1558 1558 1563 1565 1564 1562 1558 1551 1548 1551 1543 1548 1548 1546 1541 1536 1531 1527 1522 1517 1514 1511 1508 1505 1502 1499 1498 1497 1496 1496 1496 1497 1499 1501 1503 1507 1510 1513 1515 1517 1518 1518
1560 1555 1556 1563 1565 1565 1566 1565 1563 1561 1555 1552 1553 1557 1552 1549 1544 1538 1533 1528 1523 1518 1515 1512 1510 1508 1506 1504 1503 1502 1501 1501 1501 1502 1504 1505 1508 1510 1512 1514 1515 1516 1516 1517
1561 1558 1555 1558 1565 1567 1567 1564 1560 1558 1560 1560 1562 1563 1554 1549 1543 1538 1534 1529 1524 1520 1517 1514 1512 1510 1508 1507 1507 1506 1506 1505 1506 1507 1508 1509 1511 1512 1513 1514 1514 1515 1515 1515
1563 1560 1560 1570 1575 1574 1572 1568 1563 1561 1565 1566 1566 1562 1556 1550 1545 1540 1536 1532 1528 1524 1521 1518 1515 1513 1510 1509 1508 1508 1508 1508 1508 1509 1510 1511 1512 1513 1513 1514 1514 1514 1514 1513
1563 1563 1565 1569 1571 1570 1571 1571 1569 1569 1569 1569 1568 1564 1561 1556 1551 1546 1541 1537 1533 1529 1526 1524 1521 1518 1515 1512 1510 1510 1510 1510 1510 1510 1511 1512 1512 1513 1513 1513 1513 1513 1512 1512
1565 1564 1566 1570 1571 1569 1569 1571 1571 1571 1571 1569 1566 1566 1563 1559 1554 1550 1546 1542 1539 1536 1533 1530 1527 1523 1520 1518 1516 1515 1514 1513 1513 1512 1512 1512 1512 1512 1512 1512 1512 1512 1511 1511
1565 1564 1564 1564 1569 1569 1568 1573 1575 1575 1574 1573 1571 1570 1563 1559 1555 1553 1549 1546 1544 1541 1538 1535 1532 1529 1526 1524 1522 1520 1518 1517 1516 1515 1514 1513 1513 1512 1512 1512 1511 1511 1510 1509
1565 1565 1564 1563 1565 1564 1572 1572 1575 1575 1574 1573 1570 1567 1562 1559 1557 1554 1552 1550 1547 1545 1542 1539 1537 1534 1532 1529 1527 1525 1523 1521 1520 1518 1516 1515 1515 1514 1513 1512 1511 1511 1510 1508
1568 1566 1564 1563 1568 1566 1571 1571 1572 1570 1569 1570 1568 1565 1562 1558 1554 1554 1554 1552 1550 1548 1546 1543 1541 1539 1536 1534 1532 1530 1528 1526 1524 1522 1520 1519 1518 1517 1515 1514 1513 1512 1511 1509
1569 1567 1564 1563 1562 1564 1565 1569 1572 1573 1566 1568 1567 1565 1563 1559 1553 1557 1556 1554 1552 1550 1548 1546 1544 1542 1539 1537 1535 1534 1532 1530 1527 1526 1524 1522 1521 1520 1519 1517 1516 1514 1512 1510
1563 1563 1562 1560 1559 1559 1565 1570 1573 1569 1567 1568 1568 1567 1565 1563 1562 1562 1558 1556 1553 1551 1549 1548 1546 1544 1542 1540 1539 1537 1535 1532 1530 1528 1527 1525 1524 1522 1521 1519 1517 1515 1512 1510
1559 1559 1559 1559 1558 1563 1566 1568 1568 1566 1567 1568 1568 1567 1566 1565 1563 1561 1559 1556 1554 1552 1550 1549 1548 1546 1545 1542 1541 1540 1537 1534 1532 1530 1528 1527 1525 1524 1522 1520 1518 1515 1513 1511
1559 1558 1557 1557 1559 1562 1564 1565 1567 1567 1568 1568 1568 1567 1566 1565 1563 1561 1558 1556 1554 1553 1551 1550 1548 1547 1546 1544 1542 1541 1539 1536 1534 1532 1530 1528 1527 1525 1523 1521 1519 1517 1514 1513
1556 1561 1560 1558 1557 1560 1562 1564 1565 1567 1568 1568 1567 1567 1566 1565 1563 1561 1559 1557 1555 1553 1552 1550 1549 1548 1547 1545 1543 1541 1539 1537 1535 1534 1532 1530 1529 1527 1525 1522 1520 1518 1517 1515
1552 1557 1555 1553 1554 1557 1559 1561 1563 1565 1566 1567 1567 1567 1566 1565 1563 1561 1560 1557 1555 1554 1552 1550 1549 1547 1546 1544 1542 1541 1539 1537 1536 1534 1533 1531 1529 1528 1526 1524 1521 1519 1518 1517
1547 1549 1548 1546 1548 1551 1553 1557 1560 1563 1565 1566 1567 1567 1566 1565 1563 1562 1560 1557 1555 1554 1552 1550 1548 1546 1545 1543 1542 1540 1539 1537 1536 1535 1533 1532 1531 1529 1527 1525 1523 1521 1520 1519